Galveston, TX

6:18 AM CST on February 09, 2016 (GMT -0600)
Scholes International At Galveston

Weather History for KGLS - January, 2013

Change the Weather History Date:

Wednesday, January 30, 2013

  Actual Average Record
Temperature  
Mean Temperature 58 °F 56 °F  
Max Temperature 64 °F 62 °F 75 °F (1950)
Min Temperature 52 °F 49 °F 23 °F (1966)
Degree Days  
Heating Degree Days 7 10  
Month to date heating degree days 255 300  
Since 1 July heating degree days 512 660  
Cooling Degree Days 0 0  
Month to date cooling degree days 24 0  
Year to date cooling degree days 24 0  
Growing Degree Days 9 (Base 50)    
Moisture  
Dew Point 38 °F    
Average Humidity 54    
Maximum Humidity 78    
Minimum Humidity 29    
Precipitation  
Precipitation 0.03 in 0.13 in 1.92 in (1980)
Month to date precipitation 7.18 4.08  
Year to date precipitation 7.18 4.08  
Snow  
Snow 0.00 in - 0.80 in (1949)
Month to date snowfall 0.0  
Since 1 July snowfall 0.0  
Snow Depth 0.00 in    
Sea Level Pressure  
Sea Level Pressure 29.98 in    
Wind  
Wind Speed 17 mph (NW)    
Max Wind Speed 33 mph    
Max Gust Speed 44 mph    
Visibility 10 miles    
Events Rain , Thunderstorm    
T = Trace of Precipitation, MM = Missing Value Source: NWS Daily Summary

Daily Weather History Graph

Daily Weather History Graph

Search for Another Location

Airport or City:

Trip Planner

Search our weather history database for the weather conditions in past years. The results will help you decide how hot, cold, wet, or windy it might be!

Date:

Astronomy

Jan. 30, 2013 Rise Set
Actual Time 7:09 AM CST 5:56 PM CST
Civil Twilight 6:44 AM CST 6:21 PM CST
Nautical Twilight 6:16 AM CST 6:49 PM CST
Astronomical Twilight 5:47 AM CST 7:18 PM CST
Moon 9:32 PM CST (1/30) 8:58 AM CST (1/30)
Length of Visible Light 11h 36m
Length of Day
10h 46m
Waning Gibbous, 87% of the Moon is Illuminated
Jan 30
Waning Gibbous
Feb 3
Last Quarter
Feb 10
New
Feb 17
First Quarter
Feb 25
Full

Hourly Weather History & Observations

Time (CST) Temp. Dew Point Humidity Pressure Visibility Wind Dir Wind Speed Gust Speed Precip Events Conditions
12:07 AM 62.6 °F 60.8 °F 94% 29.77 in 7.0 mi NNW 13.8 mph - 0.07 in Rain Rain
12:23 AM 62.6 °F 57.2 °F 82% 29.77 in 10.0 mi NNW 16.1 mph - 0.08 in Rain , Thunderstorm Light Rain
12:36 AM 62.6 °F 55.4 °F 77% 29.78 in 10.0 mi NNW 16.1 mph - 0.08 in Rain Light Rain
12:52 AM 63.0 °F 55.9 °F 78% 29.78 in 10.0 mi NNW 16.1 mph - 0.08 in   Overcast
1:52 AM 63.0 °F 55.9 °F 78% 29.80 in 10.0 mi North 13.8 mph - N/A   Overcast
2:52 AM 64.0 °F 53.1 °F 67% 29.81 in 10.0 mi North 10.4 mph - N/A   Overcast
3:52 AM 64.0 °F 48.0 °F 56% 29.81 in 10.0 mi NW 10.4 mph - N/A   Overcast
4:52 AM 63.0 °F 36.0 °F 37% 29.82 in 10.0 mi NW 16.1 mph 23.0 mph N/A   Overcast
5:52 AM 62.1 °F 37.9 °F 41% 29.85 in 10.0 mi WNW 13.8 mph - N/A   Overcast
6:52 AM 61.0 °F 33.1 °F 35% 29.88 in 10.0 mi WNW 16.1 mph 21.9 mph N/A   Overcast
7:52 AM 61.0 °F 33.1 °F 35% 29.91 in 10.0 mi WNW 17.3 mph 26.5 mph N/A   Overcast
8:52 AM 61.0 °F 30.9 °F 32% 29.94 in 10.0 mi WNW 21.9 mph 29.9 mph N/A   Overcast
9:52 AM 61.0 °F 28.0 °F 29% 29.97 in 10.0 mi WNW 21.9 mph 34.5 mph N/A   Mostly Cloudy
10:52 AM 62.1 °F 33.1 °F 34% 30.01 in 10.0 mi WNW 27.6 mph 40.3 mph N/A   Clear
11:52 AM 62.1 °F 30.9 °F 31% 30.03 in 10.0 mi NW 23.0 mph 36.8 mph N/A   Clear
12:52 PM 62.1 °F 34.0 °F 35% 30.02 in 10.0 mi NW 26.5 mph 36.8 mph N/A   Clear
1:52 PM 62.1 °F 32.0 °F 32% 30.02 in 10.0 mi NW 28.8 mph 40.3 mph N/A   Clear
2:52 PM 62.1 °F 32.0 °F 32% 30.04 in 10.0 mi NW 20.7 mph 31.1 mph N/A   Clear
3:52 PM 61.0 °F 28.0 °F 29% 30.05 in 10.0 mi WNW 20.7 mph 33.4 mph N/A   Clear
4:52 PM 60.1 °F 30.0 °F 32% 30.07 in 10.0 mi NW 19.6 mph 31.1 mph N/A   Clear
5:52 PM 57.9 °F 32.0 °F 37% 30.09 in 10.0 mi NW 17.3 mph 26.5 mph N/A   Clear
6:52 PM 57.0 °F 30.0 °F 36% 30.13 in 10.0 mi NNW 20.7 mph 26.5 mph N/A   Clear
7:52 PM 55.9 °F 33.1 °F 42% 30.18 in 10.0 mi NW 11.5 mph - N/A   Clear
8:52 PM 55.0 °F 32.0 °F 42% 30.21 in 10.0 mi NW 9.2 mph - N/A   Clear
9:52 PM 54.0 °F 33.1 °F 45% 30.24 in 10.0 mi NNW 8.1 mph - N/A   Clear
10:52 PM 54.0 °F 30.9 °F 41% 30.24 in 10.0 mi NNW 10.4 mph - N/A   Clear
11:52 PM 53.1 °F 33.1 °F 47% 30.26 in 10.0 mi NW 6.9 mph - N/A   Clear